User: anonymous   Login
Location: Unspecified
(0.0000°N, 0.0000°E)
Time: 05:44:45
(UTC+00:00)
Language:

STARLINK-4145 - Orbit

View from above orbital plane
View from above orbital plane
View from above satellite
View from above satellite

Ground track
Ground track

The orbit is defined by the following mean orbital elements,

1 53137U          26145.50947160 +.00000000 +00000-0 -16404-4 0 00002
2 53137  53.2136 189.2586 0001196  97.6035 262.5094 15.08834542    05
Epoch (UTC): 25 May 2026 12:13:38
Eccentricity: 0.0001196
inclination: 53.2136°
perigee height: 539 km
apogee height: 541 km
right ascension of ascending node: 189.2586°
argument of perigee: 97.6035°
revolutions per day: 15.08834542
mean anomaly at epoch: 262.5094°

The dashed part of the orbit path shows where the satellite is in the earth's shadow,  

DLR